sat.trackr.live / text

‹ back to catalog

STARLINK-33781

NORAD 63826 · 2025-092Y

PAYLOAD ACTIVE UNKNOWN

§ Identity

Operator
Country
US
Launch date
2025-05-04
Launch site
AFETR
Launch vehicle
Mass (kg)
RCS (m²)

Purposes: comms

External: N2YO · Heavens-Above · Gunter

§ Orbital elements

Epoch: 2026-09-20T00:49:49.303488Z

Period
94.27 min
Inclination
43.0013°
Eccentricity
0.0001575
Mean motion
15.27580669 rev/d
Perigee alt
482.0 km
Apogee alt
484.1 km
Semi-major
6,861.2 km
B*
1.7816e-4
RAAN
155.2905°
Arg perigee
266.4044°
Mean anomaly
93.6627°
Rev number
7,838

§ Raw data

STARLINK-337811 63826U 25092Y   26263.03459842  .00004644  00000+0  17816-3 0  99902 63826  43.0013 155.2905 0001575 266.4044  93.6627 15.27580669 78387

JSON: /api/v1/satellites/63826 · /tle

For live sub-satellite position, see the globe view (requires WebGL).

§ Visibility from observer

Set your observer location to see the next 7 days of passes ≥ 10°. The values pass through the URL so the page stays shareable.

No JS? Fill the form by hand. The geolocation button needs JavaScript.